Location: Wildcat Hills Observatory
(41.6350°N, 103.6812°W)
Time: 17:31:27
(UTC-06:00)

Cosmos 1441 Rocket - Pass Details

Date: 23 June 2018
Orbit: 497 x 543 km, 81.1° (Epoch: 21 July)

Event Time Altitude Azimuth Distance (km) Brightness Sun altitude
Rises 23:08:39 0° 1° (N) 2,628 7.9 -20.3°
Reaches altitude 10° 23:11:02 10° 14° (NNE) 1,729 6.5 -20.5°
Maximum altitude 23:14:19 27° 74° (ENE) 986 4.5 -20.7°
Enters shadow 23:14:21 27° 75° (ENE) 986 4.5 -20.7°
